Muscle Shoals, AL

11:15 PM CDT on September 23, 2017 (GMT -0500)
Northwest Alabama Regional

Weather History for KMSL - July, 2013

Change the Weather History Date:

Tuesday, July 16, 2013

  Actual Average Record
Temperature  
Mean Temperature 82 °F 80 °F  
Max Temperature 91 °F 91 °F 105 °F (1980)
Min Temperature 72 °F 70 °F 53 °F (1926)
Degree Days  
Heating Degree Days 0 0  
Month to date heating degree days 0 0  
Since 1 June heating degree days 0 1  
Since 1 July heating degree days 0 0  
Cooling Degree Days 17 16  
Month to date cooling degree days 213 242  
Year to date cooling degree days 859 848  
Since 1 June cooling degree days 619 604  
Growing Degree Days 32 (Base 50)    
Moisture  
Dew Point 71 °F    
Average Humidity 68    
Maximum Humidity 87    
Minimum Humidity 49    
Precipitation  
Precipitation 0.00 in 0.14 in 1.75 in (1972)
Month to date precipitation 5.51 2.40  
Year to date precipitation 35.10 30.66  
Snow  
Snow 0.00 in - - ()
Month to date snowfall 0.0  
Since 1 June snowfall 0.0  
Since 1 July snowfall 0.0  
Snow Depth 0.00 in    
Sea Level Pressure  
Sea Level Pressure 30.26 in    
Wind  
Wind Speed 4 mph (ESE)    
Max Wind Speed 12 mph    
Max Gust Speed 16 mph    
Visibility 10 miles    
Events      
T = Trace of Precipitation, MM = Missing Value Source: NWS Daily Summary

Daily Weather History Graph

Daily Weather History Graph

Search for Another Location

Airport or City:

Trip Planner

Search our weather history database for the weather conditions in past years. The results will help you decide how hot, cold, wet, or windy it might be!

Date:

Astronomy

Jul. 16, 2013 Rise Set
Actual Time 5:49 AM CDT 8:03 PM CDT
Civil Twilight 5:20 AM CDT 8:32 PM CDT
Nautical Twilight 4:45 AM CDT 9:07 PM CDT
Astronomical Twilight 4:06 AM CDT 9:45 PM CDT
Moon 1:50 PM CDT (7/16) 12:11 AM CDT (7/16)
Length of Visible Light 15h 11m
Length of Day
14h 14m
First Quarter, 56% of the Moon is Illuminated
Jul 16
First Quarter
Jul 22
Full
Jul 29
Last Quarter
Aug 6
New
Aug 14
First Quarter

Hourly Weather History & Observations

Time (CDT) Temp. Heat Index Dew Point Humidity Pressure Visibility Wind Dir Wind Speed Gust Speed Precip Events Conditions
12:53 AM 75.0 °F - 71.1 °F 87% 30.23 in 10.0 mi East 5.8 mph - N/A   Clear
1:53 AM 75.0 °F - 70.0 °F 84% 30.24 in 10.0 mi East 3.5 mph - N/A   Clear
2:53 AM 75.0 °F - 70.0 °F 84% 30.23 in 10.0 mi East 4.6 mph - N/A   Clear
3:53 AM 73.0 °F - 70.0 °F 90% 30.24 in 10.0 mi East 4.6 mph - N/A   Clear
4:53 AM 73.0 °F - 69.1 °F 87% 30.24 in 10.0 mi East 3.5 mph - N/A   Clear
5:53 AM 73.0 °F - 69.1 °F 87% 30.26 in 10.0 mi East 3.5 mph - N/A   Clear
6:53 AM 73.9 °F - 70.0 °F 87% 30.27 in 10.0 mi East 3.5 mph - N/A   Clear
7:53 AM 78.1 °F - 71.1 °F 79% 30.29 in 10.0 mi East 6.9 mph - N/A   Clear
8:53 AM 80.1 °F 83.6 °F 71.1 °F 74% 30.30 in 10.0 mi SE 8.1 mph - N/A   Partly Cloudy
9:53 AM 82.9 °F 88.0 °F 72.0 °F 69% 30.30 in 10.0 mi SSE 9.2 mph - N/A   Clear
10:20 AM 84.2 °F 89.6 °F 71.6 °F 66% 30.32 in 10.0 mi SE 6.9 mph - N/A   Mostly Cloudy
10:27 AM 84.2 °F 89.6 °F 71.6 °F 66% 30.32 in 10.0 mi SSE 6.9 mph - N/A   Scattered Clouds
10:53 AM 84.9 °F 90.1 °F 71.1 °F 63% 30.30 in 10.0 mi Variable 6.9 mph - N/A   Partly Cloudy
11:53 AM 86.0 °F 91.5 °F 71.1 °F 61% 30.30 in 10.0 mi East 5.8 mph - N/A   Partly Cloudy
12:53 PM 88.0 °F 92.9 °F 70.0 °F 55% 30.28 in 10.0 mi ESE 6.9 mph - N/A   Scattered Clouds
1:53 PM 87.1 °F 92.8 °F 71.1 °F 59% 30.27 in 10.0 mi ENE 4.6 mph - N/A   Mostly Cloudy
2:53 PM 90.0 °F 94.5 °F 69.1 °F 50% 30.26 in 10.0 mi ESE 6.9 mph - N/A   Partly Cloudy
3:53 PM 90.0 °F 94.5 °F 69.1 °F 50% 30.24 in 10.0 mi ESE 4.6 mph - N/A   Partly Cloudy
4:53 PM 91.0 °F 96.6 °F 70.0 °F 50% 30.23 in 10.0 mi ESE 6.9 mph - N/A   Partly Cloudy
5:53 PM 90.0 °F 94.5 °F 69.1 °F 50% 30.22 in 10.0 mi SE 4.6 mph - N/A   Partly Cloudy
6:53 PM 88.0 °F 92.9 °F 70.0 °F 55% 30.22 in 10.0 mi ESE 3.5 mph - N/A   Clear
7:53 PM 82.9 °F 89.4 °F 73.9 °F 74% 30.22 in 10.0 mi Calm Calm - N/A   Clear
8:53 PM 78.1 °F - 72.0 °F 81% 30.25 in 10.0 mi Calm Calm - N/A   Clear
9:53 PM 78.1 °F - 72.0 °F 81% 30.27 in 10.0 mi Calm Calm - N/A   Clear
10:53 PM 75.9 °F - 72.0 °F 87% 30.27 in 10.0 mi Calm Calm - N/A   Clear
11:53 PM 75.9 °F - 71.1 °F 85% 30.29 in 10.0 mi Calm Calm - N/A   Clear